Weather Roundup
Issued by NWS Corpus Christi, TX

Home | Current Version | Previous Version | Text Only | Print | Product List | Glossary On
Versions: 1 2 3 4 5 6 7 8 9 10 11 12 13 14 15 16 17 18 19 20 21 22 23 24 25 26 27 28 29 30 31 32 33 34 35 36 37 38 39 40 41 42 43 44 45 46 47 48 49 50
000
ASUS44 KCRP 230710
HRRCRP

SOUTH TEXAS REGIONAL WEATHER ROUNDUP
NATIONAL WEATHER SERVICE CORPUS CHRISTI TX
100 AM CST THU FEB 23 2017


TXZ229>244-230800-
...CORPUS CHRISTI AREA OBSERVATIONS...

CITY           SKY/WX    TMP DP  RH WIND       PRES   REMARKS
CORPUS CHRISTI CLEAR     60  57  89 S7        29.77F
NAS CORPUS CHR CLEAR     68  66  93 S12       29.77F
ROCKPORT       CLEAR     68  62  81 S8        29.77S
KINGSVILLE NAS CLEAR     56  53  90 S7        29.77F
ALICE          CLEAR     56  50  80 S5        29.76F
ORANGE GROVE     N/A     58  50  75 S7        29.78F
FALFURRIAS     CLEAR    N/A N/A N/A S5        29.77F
$$

...VICTORIA AREA OBSERVATIONS...

CITY           SKY/WX    TMP DP  RH WIND       PRES   REMARKS
VICTORIA         N/A     57  54  89 S5        29.78S
BEEVILLE       FAIR      60  53  78 S5        29.77F
PLEASANTON     CLEAR     60  48  64 SE3       29.77F
SAN ANTONIO    CLEAR     63  44  50 S6        29.77F
$$

...LAREDO AREA OBSERVATIONS...

CITY           SKY/WX    TMP DP  RH WIND       PRES   REMARKS
LAREDO         CLEAR     68  42  38 SE12      29.75F
COTULLA        CLEAR     61  47  59 SE7       29.74F
DEL RIO        CLEAR     62  41  46 NE8       29.72F
MCALLEN        CLEAR     62  50  64 SE6       29.77F
HEBBRONVILLE   CLEAR     55  45  68 CALM      29.78F
$$

...OTHER TEXAS OBSERVATIONS...

CITY           SKY/WX    TMP DP  RH WIND       PRES   REMARKS
BROWNSVILLE    CLEAR     62  61  96 SE5       29.79F FOG
HOUSTON        CLEAR     60  49  66 S7        29.76F
COL. STATION   CLEAR     61  50  67 S7        29.74F
AUSTIN         CLEAR     50  47  89 CALM      29.74F
WACO           CLEAR     54  48  80 S6        29.71F
FORT WORTH     CLEAR     62  49  62 S6        29.66F
WICHITA FALLS  CLEAR     54  41  61 S9        29.62F
LUBBOCK        CLEAR     59  27  29 SW9       29.74F
EL PASO        CLEAR     66  25  21 SW10      29.84F
$$

...MARINE OBSERVATIONS...

STATION/POSITION TIME  SKY/WX   TEMP    WIND        PRES    VSBY  WAVE   SWELL
                                AIR SEA DIR/SP/G                  HT/PER HT/PER
                 (UTC)          (F)     (DEG/KT/KT) (MB)    (MI)  (FT/S) (FT/S)
PORT ARANSAS     0600            70 70  150/ 13/ 14 1008.3F
BUOY 90 E PORT A 0650            70 69  130/ 12/ 14 1008.6F         1/ 3
BUOY 45 SE BAFFI 0650            74     160/ 14/ 16 1007.7F         2/ 3
BUOY 200 E PT IS 0650            71 74   50/  6/  8 1009.9F         2/ 4   2/ 4
BUOY 15 E GALVES 0550            67 66  170/  8/  8 1009.5          1/ 3
$$




USA.gov is the U.S. government's official web portal to all federal, state and local government web resources and services.